Regional Weather Roundup
Issued by NWS

Home | Current Version | Previous Version | Graphics & Text | Print | Product List | Glossary On
Versions: 1 2 3 4 5 6 7 8 9 10 11 12 13 14 15 16 17 18 19 20 21 22 23 24 25 26 27 28 29 30 31 32 33 34 35 36 37 38 39 40 41 42 43 44 45 46 47 48 49 50
501
ASUS45 KSLC 280910
RWRUT

UTAH REGIONAL WEATHER ROUNDUP
NATIONAL WEATHER SERVICE SALT LAKE CITY UT
300 AM MDT SAT MAY 28 2016

UTZ001>011-023>025-281000-

NORTHERN UTAH

CITY           SKY/WX    TMP DP  RH WIND       PRES   REMARKS
BRIGHAM CITY     N/A     51  45  81 CALM      29.99S
HILL AFB       CLOUDY    50  42  73 E10       29.98F
LOGAN          MOCLDY    48  46  93 CALM      29.99S
OGDEN          MOCLDY    50  44  80 S6        29.97F
PROVO AIRPORT  PTCLDY    52  39  62 CALM      29.99R
SALT LAKE CITY MOCLDY    57  47  69 N3        29.97S
VERNAL         CLEAR     46  35  65 W5        30.01S
WENDOVER       PTCLDY    54  39  58 CALM      30.00S
HEBER CITY     PTCLDY    36  34  93 SE5       30.02S WCI  32
WEST JORDAN    CLOUDY    54  46  76 NW5       30.00R

$$

UTZ012>022-026-027-281000-

SOUTHERN/CENTRAL UTAH

CITY           SKY/WX    TMP DP  RH WIND       PRES   REMARKS
BLANDING       PTCLDY    48  32  54 N8        30.09R
BRYCE CANYON   CLEAR     34  28  79 W8        30.12S WCI  27
CEDAR CITY     CLEAR     48  31  51 CALM      29.98S
DELTA          PTCLDY    46  41  81 N6        29.97S
HANKSVILLE     PTCLDY    45  32  61 CALM      29.99R
MILFORD        PTCLDY    47  31  53 NE3       29.96R
MOAB/CYNLANDS  CLEAR     53  37  54 MISG      29.96R
PRICE          CLEAR     45  28  51 VRB3      30.02S
ST GEORGE      MOSUNNY   64  27  24 E6        29.88R

$$

REGIONAL REPORTS     COLORADO/ARIZONA

CITY           SKY/WX    TMP DP  RH WIND       PRES   REMARKS
CRAIG, CO      CLOUDY    43  40  89 CALM      30.06S
GRAND JUNCTION CLEAR     47  42  83 CALM      30.00S
RIFLE          CLEAR     39  34  82 E6        30.05S WCI  35
MONTROSE       CLEAR     45  34  65 SE9       30.06S
CORTEZ         CLEAR     39  31  72 CALM      30.05R
PAGE, AZ       CLEAR     60  32  34 S3        29.94R
GRAND CANYON   PTCLDY    34  23  64 NE3       30.08S
KINGMAN        CLEAR     64  28  25 SE10      29.89F
FLAGSTAFF      CLEAR     36  26  67 CALM      30.11S

$$

REGIONAL REPORTS    NEVADA/IDAHO/WYOMING

CITY           SKY/WX    TMP DP  RH WIND       PRES   REMARKS
LAS VEGAS, NV  CLEAR     75  27  17 S6        29.75S
ELY            MOCLDY    42  35  76 VRB3      30.04R
ELKO           CLEAR     42  36  79 S3        30.02R
POCATELLO, ID  CLEAR     49  26  41 S14       29.99S
BURLEY         CLEAR     44  32  62 SW13      29.99R
EVANSTON, WY   CLOUDY    41  34  76 SW6       30.06R
ROCK SPRINGS   CLEAR     42  35  76 W12       30.03R
KEMMERER         N/A     41  34  75 W6        30.05F

$$




USA.gov is the U.S. government's official web portal to all federal, state and local government web resources and services.